Weather History for Decatur, IL

Change the Weather History Date:

Tuesday, September 2, 2014

  Actual Average Record
Temperature  
Mean Temperature 75 °F 71 °F  
Max Temperature 81 °F 83 °F 101 °F (2011)
Min Temperature 68 °F 60 °F 52 °F (2001)
Degree Days  
Heating Degree Days 0 0  
Month to date heating degree days 0 0  
Since 1 July heating degree days 2 6  
Cooling Degree Days 10 7  
Month to date cooling degree days 22 14  
Year to date cooling degree days 926 932  
Growing Degree Days 25 (Base 50)    
Moisture  
Dew Point 68 °F    
Average Humidity 80    
Maximum Humidity 97    
Minimum Humidity 62    
Precipitation  
Precipitation 0.20 in 0.12 in 2.62 in (2010)
Month to date precipitation 0.58 0.26  
Year to date precipitation 24.51 26.57  
Sea Level Pressure  
Sea Level Pressure 29.94 in    
Wind  
Wind Speed 6 mph (SW)    
Max Wind Speed 14 mph    
Max Gust Speed 17 mph    
Visibility 9 miles    
Events Rain    
T = Trace of Precipitation, MM = Missing Value Source: NWS Daily Summary

Daily Weather History Graph

Daily Weather History Graph

Search for Another Location

Airport:

Trip Planner

Search our weather history database for the weather conditions in past years. The results will help you decide how hot, cold, wet, or windy it might be!

Date:

Astronomy

Sep. 02, 2014 Rise Set
Actual Time 6:24 AM CDT 7:25 PM CDT
Civil Twilight 5:56 AM CDT 7:52 PM CDT
Nautical Twilight 5:23 AM CDT 8:25 PM CDT
Astronomical Twilight 4:49 AM CDT 8:59 PM CDT
Moon 2:07 PM CDT (9/2) No Moon Set
Length of Visible Light 13h 56m
Length of Day
13h 00m
First Quarter, 53% of the Moon is Illuminated
Sep 2
First Quarter
Sep 8
Full
Sep 15
Last Quarter
Sep 24
New
Oct 1
First Quarter

Hourly Weather History & Observations

Time (CDT) Temp. Heat Index Dew Point Humidity Pressure Visibility Wind Dir Wind Speed Gust Speed Precip Events Conditions
12:18 AM 71.1 °F - 69.1 °F 93% 29.94 in 5.0 mi South 8.1 mph - 0.06 in Rain Rain
12:54 AM 70.0 °F - 68.0 °F 93% 29.92 in 8.0 mi South 12.7 mph - 0.16 in Rain Light Rain
1:54 AM 69.1 °F - 66.9 °F 93% 29.92 in 10.0 mi SW 8.1 mph - 0.05 in Rain Light Rain
2:54 AM 69.1 °F - 66.9 °F 93% 29.89 in 10.0 mi South 13.8 mph - 0.07 in Rain Light Rain
3:24 AM 69.1 °F - 66.9 °F 93% 29.92 in 10.0 mi West 4.6 mph - 0.03 in Rain Light Rain
3:54 AM 69.1 °F - 66.9 °F 93% 29.91 in 10.0 mi WSW 6.9 mph - 0.07 in Rain Light Rain
3:59 AM 69.1 °F - 66.9 °F 93% 29.91 in 10.0 mi SSW 5.8 mph - 0.00 in Rain Light Rain
4:06 AM 69.1 °F - 66.9 °F 93% 29.90 in 10.0 mi South 6.9 mph - 0.00 in Rain Light Rain
4:54 AM 69.1 °F - 66.9 °F 93% 29.88 in 10.0 mi South 6.9 mph - 0.00 in   Mostly Cloudy
5:54 AM 69.1 °F - 66.9 °F 93% 29.90 in 10.0 mi South 8.1 mph - N/A   Overcast
6:54 AM 69.1 °F - 66.9 °F 93% 29.91 in 10.0 mi SSW 9.2 mph - N/A   Overcast
7:54 AM 69.1 °F - 66.9 °F 93% 29.91 in 10.0 mi SW 6.9 mph - N/A   Overcast
8:54 AM 69.1 °F - 68.0 °F 96% 29.95 in 2.0 mi WSW 5.8 mph - 0.00 in Rain Light Rain
9:11 AM 70.0 °F - 68.0 °F 93% 29.96 in 5.0 mi SW 3.5 mph - 0.01 in Rain Light Rain
9:54 AM 71.1 °F - 69.1 °F 93% 29.95 in 10.0 mi SW 5.8 mph - 0.01 in Rain Light Rain
10:41 AM 73.0 °F - 69.1 °F 87% 29.97 in 10.0 mi WSW 6.9 mph - 0.00 in   Mostly Cloudy
10:54 AM 73.0 °F - 69.1 °F 87% 29.95 in 10.0 mi West 5.8 mph - 0.00 in   Mostly Cloudy
11:16 AM 73.9 °F - 68.0 °F 82% 29.96 in 10.0 mi West 6.9 mph - N/A   Overcast
11:54 AM 75.9 °F - 69.1 °F 79% 29.95 in 10.0 mi WSW 4.6 mph - N/A   Mostly Cloudy
12:54 PM 75.9 °F - 68.0 °F 76% 29.95 in 10.0 mi WSW 4.6 mph - N/A   Mostly Cloudy
1:52 PM 78.8 °F - 69.8 °F 74% 29.98 in 10.0 mi West 8.1 mph - N/A   Scattered Clouds
1:54 PM 79.0 °F - 68.0 °F 69% 29.96 in 10.0 mi West 8.1 mph - N/A   Partly Cloudy
2:54 PM 79.0 °F - 69.1 °F 72% 29.95 in 10.0 mi WSW 5.8 mph - N/A   Clear
3:54 PM 80.1 °F 82.1 °F 66.0 °F 62% 29.94 in 10.0 mi WSW 6.9 mph - N/A   Mostly Cloudy
4:54 PM 80.1 °F 82.3 °F 66.9 °F 64% 29.92 in 10.0 mi WSW 4.6 mph - N/A   Mostly Cloudy
5:54 PM 81.0 °F 83.8 °F 68.0 °F 65% 29.91 in 10.0 mi WNW 4.6 mph - N/A   Scattered Clouds
6:54 PM 79.0 °F - 66.9 °F 66% 29.92 in 10.0 mi Calm Calm - N/A   Mostly Cloudy
7:54 PM 75.9 °F - 69.1 °F 79% 29.93 in 10.0 mi SW 4.6 mph - N/A   Scattered Clouds
8:54 PM 73.0 °F - 68.0 °F 84% 29.96 in 10.0 mi South 3.5 mph - N/A   Clear
9:54 PM 71.1 °F - 66.9 °F 87% 29.98 in 10.0 mi SW 5.8 mph - N/A   Scattered Clouds
10:54 PM 70.0 °F - 66.9 °F 90% 30.00 in 10.0 mi SW 4.6 mph - N/A   Clear
11:54 PM 69.1 °F - 66.0 °F 90% 30.00 in 10.0 mi SW 6.9 mph - N/A   Partly Cloudy